Time,TemperatureF,DewpointF,PressureIn,WindDirection,WindDirectionDegrees,WindSpeedMPH,WindSpeedGustMPH,Humidity,HourlyPrecipIn,Conditions,Clouds,dailyrainin,SoftwareType,DateUTC
2013-03-27 00:00:00,0.0,0.0,29.94,NW,320,6.3,7.6,0,0.00,,---,0.00,VWS V14.01,2013-03-27 04:00:00,
2013-03-27 00:01:00,0.0,0.0,29.94,NNW,330,3.6,6.3,0,0.00,,---,0.00,VWS V14.01,2013-03-27 04:01:00,
2013-03-27 00:02:00,0.0,0.0,29.94,NW,322,3.1,6.3,0,0.00,,---,0.00,VWS V14.01,2013-03-27 04:02:00,
2013-03-27 00:06:00,0.0,0.0,29.94,NNW,327,6.3,8.1,0,0.00,,---,0.00,VWS V14.01,2013-03-27 04:06:00,
2013-03-27 00:11:00,0.0,0.0,29.94,NNW,343,5.8,8.3,0,0.00,,---,0.00,VWS V14.01,2013-03-27 04:11:00,
2013-03-27 00:17:00,0.0,0.0,29.94,NW,322,6.3,7.6,0,0.00,,---,0.00,VWS V14.01,2013-03-27 04:17:00,
2013-03-27 00:23:00,0.0,0.0,29.94,NNW,332,6.3,10.1,0,0.00,,---,0.00,VWS V14.01,2013-03-27 04:23:00,
2013-03-27 00:28:00,0.0,0.0,29.94,NW,317,8.3,10.1,0,0.00,,---,0.00,VWS V14.01,2013-03-27 04:28:00,
2013-03-27 00:33:00,0.0,0.0,29.94,NW,317,5.4,6.3,0,0.00,,---,0.00,VWS V14.01,2013-03-27 04:33:00,
2013-03-27 00:38:00,0.0,0.0,29.94,NW,317,8.3,8.3,0,0.00,,---,0.00,VWS V14.01,2013-03-27 04:38:00,
2013-03-27 00:43:00,0.0,0.0,29.94,NW,313,10.1,11.4,0,0.00,,---,0.00,VWS V14.01,2013-03-27 04:43:00,
2013-03-27 00:48:00,0.0,0.0,29.94,NW,313,6.3,6.3,0,0.00,,---,0.00,VWS V14.01,2013-03-27 04:48:00,
2013-03-27 00:53:00,0.0,0.0,29.94,North,353,8.1,8.1,0,0.00,,---,0.00,VWS V14.01,2013-03-27 04:53:00,
2013-03-27 00:58:00,0.0,0.0,29.94,NW,311,6.3,10.5,0,0.00,,---,0.00,VWS V14.01,2013-03-27 04:58:00,
2013-03-27 01:03:00,0.0,0.0,29.94,NW,308,6.3,7.6,0,0.00,,---,0.00,VWS V14.01,2013-03-27 05:03:00,
2013-03-27 01:08:00,0.0,0.0,29.94,WNW,298,8.3,10.1,0,0.00,,---,0.00,VWS V14.01,2013-03-27 05:08:00,
2013-03-27 01:14:00,0.0,0.0,29.94,NW,321,7.6,10.5,0,0.00,,---,0.00,VWS V14.01,2013-03-27 05:14:00,
2013-03-27 01:19:00,0.0,0.0,29.94,NNW,335,8.7,12.3,0,0.00,,---,0.00,VWS V14.01,2013-03-27 05:19:00,
2013-03-27 01:24:00,0.0,0.0,29.94,NW,304,8.3,8.3,0,0.00,,---,0.00,VWS V14.01,2013-03-27 05:24:00,
2013-03-27 01:29:00,0.0,0.0,29.94,NNW,340,10.1,10.1,0,0.00,,---,0.00,VWS V14.01,2013-03-27 05:29:00,
2013-03-27 01:34:00,0.0,0.0,29.94,NNW,327,8.1,8.3,0,0.00,,---,0.00,VWS V14.01,2013-03-27 05:34:00,
2013-03-27 01:39:00,0.0,0.0,29.94,NW,312,4.9,6.3,0,0.00,,---,0.00,VWS V14.01,2013-03-27 05:39:00,
2013-03-27 01:44:00,0.0,0.0,29.94,NW,305,5.8,8.3,0,0.00,,---,0.00,VWS V14.01,2013-03-27 05:44:00,
2013-03-27 01:49:00,0.0,0.0,29.94,NW,315,7.6,8.3,0,0.00,,---,0.00,VWS V14.01,2013-03-27 05:49:00,
2013-03-27 01:54:00,0.0,0.0,29.94,NW,316,5.8,7.6,0,0.00,,---,0.00,VWS V14.01,2013-03-27 05:54:00,
2013-03-27 01:59:00,0.0,0.0,29.94,NW,324,7.6,7.6,0,0.00,,---,0.00,VWS V14.01,2013-03-27 05:59:00,
2013-03-27 02:04:00,0.0,0.0,29.94,WNW,301,6.3,7.6,0,0.00,,---,0.00,VWS V14.01,2013-03-27 06:04:00,
2013-03-27 02:09:00,0.0,0.0,29.94,NW,314,8.1,8.1,0,0.00,,---,0.00,VWS V14.01,2013-03-27 06:09:00,
2013-03-27 02:14:00,0.0,0.0,29.94,NW,306,8.3,8.3,0,0.00,,---,0.00,VWS V14.01,2013-03-27 06:14:00,
2013-03-27 02:19:00,0.0,0.0,29.94,WNW,294,5.4,5.8,0,0.00,,---,0.00,VWS V14.01,2013-03-27 06:19:00,
2013-03-27 02:24:00,0.0,0.0,29.94,NW,320,5.8,8.3,0,0.00,,---,0.00,VWS V14.01,2013-03-27 06:24:00,
2013-03-27 02:29:00,0.0,0.0,29.94,NW,319,3.6,5.8,0,0.00,,---,0.00,VWS V14.01,2013-03-27 06:29:00,
2013-03-27 02:34:00,0.0,0.0,29.94,NW,322,8.3,8.7,0,0.00,,---,0.00,VWS V14.01,2013-03-27 06:34:00,
2013-03-27 02:39:00,0.0,0.0,29.94,NW,321,4.0,5.8,0,0.00,,---,0.00,VWS V14.01,2013-03-27 06:39:00,
2013-03-27 02:44:00,0.0,0.0,29.94,NNW,330,8.3,8.3,0,0.00,,---,0.00,VWS V14.01,2013-03-27 06:44:00,
2013-03-27 02:49:00,0.0,0.0,29.94,North,353,4.5,6.3,0,0.00,,---,0.00,VWS V14.01,2013-03-27 06:49:00,
2013-03-27 02:54:00,0.0,0.0,29.94,NW,326,6.3,6.3,0,0.00,,---,0.00,VWS V14.01,2013-03-27 06:54:00,
2013-03-27 02:59:00,0.0,0.0,29.94,NNW,335,5.8,8.7,0,0.00,,---,0.00,VWS V14.01,2013-03-27 06:59:00,
2013-03-27 03:04:00,0.0,0.0,29.94,NW,310,6.3,6.3,0,0.00,,---,0.00,VWS V14.01,2013-03-27 07:04:00,
2013-03-27 03:09:00,0.0,0.0,29.94,NW,326,8.1,8.7,0,0.00,,---,0.00,VWS V14.01,2013-03-27 07:09:00,
2013-03-27 03:14:00,0.0,0.0,29.94,NNW,340,5.8,6.3,0,0.00,,---,0.00,VWS V14.01,2013-03-27 07:14:00,
2013-03-27 03:19:00,0.0,0.0,29.94,WNW,299,7.6,7.6,0,0.00,,---,0.00,VWS V14.01,2013-03-27 07:19:00,
2013-03-27 03:24:00,0.0,0.0,29.94,NNW,332,7.6,7.6,0,0.00,,---,0.00,VWS V14.01,2013-03-27 07:24:00,
2013-03-27 03:29:00,0.0,0.0,29.94,NW,317,7.6,7.6,0,0.00,,---,0.00,VWS V14.01,2013-03-27 07:29:00,
2013-03-27 03:34:00,0.0,0.0,29.94,NNW,329,6.3,8.7,0,0.00,,---,0.00,VWS V14.01,2013-03-27 07:34:00,
2013-03-27 03:39:00,0.0,0.0,29.94,NW,320,9.6,9.6,0,0.00,,---,0.00,VWS V14.01,2013-03-27 07:39:00,
2013-03-27 03:44:00,0.0,0.0,29.94,NW,324,7.2,8.1,0,0.00,,---,0.00,VWS V14.01,2013-03-27 07:44:00,
2013-03-27 03:49:00,0.0,0.0,29.94,NNW,330,5.8,7.2,0,0.00,,---,0.00,VWS V14.01,2013-03-27 07:49:00,
2013-03-27 03:54:00,0.0,0.0,29.94,NW,318,5.8,5.8,0,0.00,,---,0.00,VWS V14.01,2013-03-27 07:54:00,
2013-03-27 03:59:00,0.0,0.0,29.94,NW,325,3.6,3.6,0,0.00,,---,0.00,VWS V14.01,2013-03-27 07:59:00,
2013-03-27 04:04:00,0.0,0.0,29.94,WNW,303,7.6,7.6,0,0.00,,---,0.00,VWS V14.01,2013-03-27 08:04:00,
2013-03-27 04:09:00,0.0,0.0,29.94,NW,315,5.8,8.7,0,0.00,,---,0.00,VWS V14.01,2013-03-27 08:09:00,
2013-03-27 04:14:00,0.0,0.0,29.94,NNW,331,3.6,4.9,0,0.00,,---,0.00,VWS V14.01,2013-03-27 08:14:00,
2013-03-27 04:19:00,0.0,0.0,29.94,NW,307,4.9,6.3,0,0.00,,---,0.00,VWS V14.01,2013-03-27 08:19:00,
2013-03-27 04:24:00,0.0,0.0,29.94,NW,304,4.0,5.8,0,0.00,,---,0.00,VWS V14.01,2013-03-27 08:24:00,
2013-03-27 04:29:00,0.0,0.0,29.94,North,350,3.6,4.9,0,0.00,,---,0.00,VWS V14.01,2013-03-27 08:29:00,
2013-03-27 04:34:00,0.0,0.0,29.94,NNW,334,5.4,5.4,0,0.00,,---,0.00,VWS V14.01,2013-03-27 08:34:00,
2013-03-27 04:39:00,0.0,0.0,29.94,NW,314,5.8,5.8,0,0.00,,---,0.00,VWS V14.01,2013-03-27 08:39:00,
2013-03-27 04:44:00,0.0,0.0,29.91,NNW,344,5.4,5.4,0,0.00,,---,0.00,VWS V14.01,2013-03-27 08:44:00,
2013-03-27 04:49:00,0.0,0.0,29.91,NNW,344,6.3,6.3,0,0.00,,---,0.00,VWS V14.01,2013-03-27 08:49:00,
2013-03-27 04:54:00,0.0,0.0,29.91,NW,324,6.3,6.3,0,0.00,,---,0.00,VWS V14.01,2013-03-27 08:54:00,
2013-03-27 04:59:00,0.0,0.0,29.94,NW,313,6.3,8.3,0,0.00,,---,0.00,VWS V14.01,2013-03-27 08:59:00,
2013-03-27 05:04:00,0.0,0.0,29.94,NNW,341,4.9,5.8,0,0.00,,---,0.00,VWS V14.01,2013-03-27 09:04:00,
2013-03-27 05:09:00,0.0,0.0,29.94,NNW,331,5.4,8.7,0,0.00,,---,0.00,VWS V14.01,2013-03-27 09:09:00,
2013-03-27 05:14:00,0.0,0.0,29.94,NW,308,6.3,6.3,0,0.00,,---,0.00,VWS V14.01,2013-03-27 09:14:00,
2013-03-27 05:19:00,0.0,0.0,29.94,NW,317,8.1,8.1,0,0.00,,---,0.00,VWS V14.01,2013-03-27 09:19:00,
2013-03-27 05:24:00,0.0,0.0,29.94,NNW,337,5.8,5.8,0,0.00,,---,0.00,VWS V14.01,2013-03-27 09:24:00,
2013-03-27 05:29:00,0.0,0.0,29.94,NW,314,5.8,6.3,0,0.00,,---,0.00,VWS V14.01,2013-03-27 09:29:00,
2013-03-27 05:34:00,0.0,0.0,29.94,NNW,331,3.6,7.6,0,0.00,,---,0.00,VWS V14.01,2013-03-27 09:34:00,
2013-03-27 05:39:00,0.0,0.0,29.94,NNW,348,2.7,5.8,0,0.00,,---,0.00,VWS V14.01,2013-03-27 09:39:00,
2013-03-27 05:44:00,0.0,0.0,29.94,NNW,330,4.0,4.0,0,0.00,,---,0.00,VWS V14.01,2013-03-27 09:44:00,
2013-03-27 05:49:00,0.0,0.0,29.94,NNW,327,4.9,4.9,0,0.00,,---,0.00,VWS V14.01,2013-03-27 09:49:00,
2013-03-27 05:54:00,0.0,0.0,29.94,NW,325,5.8,5.8,0,0.00,,---,0.00,VWS V14.01,2013-03-27 09:54:00,
2013-03-27 05:59:00,0.0,0.0,29.94,North,353,3.6,3.6,0,0.00,,---,0.00,VWS V14.01,2013-03-27 09:59:00,
2013-03-27 06:04:00,0.0,0.0,29.94,NNW,343,4.0,4.9,0,0.00,,---,0.00,VWS V14.01,2013-03-27 10:04:00,
2013-03-27 06:09:00,0.0,0.0,29.94,NNW,345,4.0,4.0,0,0.00,,---,0.00,VWS V14.01,2013-03-27 10:09:00,
2013-03-27 06:14:00,0.0,0.0,29.97,North,353,4.0,6.3,0,0.00,,---,0.00,VWS V14.01,2013-03-27 10:14:00,
2013-03-27 06:19:00,0.0,0.0,29.97,North,353,5.4,5.8,0,0.00,,---,0.00,VWS V14.01,2013-03-27 10:19:00,
2013-03-27 06:24:00,0.0,0.0,29.97,North,349,3.1,8.3,0,0.00,,---,0.00,VWS V14.01,2013-03-27 10:24:00,
2013-03-27 06:29:00,0.0,0.0,29.97,NNW,341,5.4,5.4,0,0.00,,---,0.00,VWS V14.01,2013-03-27 10:29:00,
2013-03-27 06:34:00,0.0,0.0,29.97,North,353,8.1,8.1,0,0.00,,---,0.00,VWS V14.01,2013-03-27 10:34:00,
2013-03-27 06:39:00,0.0,0.0,29.97,NNW,329,3.1,5.8,0,0.00,,---,0.00,VWS V14.01,2013-03-27 10:39:00,
2013-03-27 06:44:00,0.0,0.0,29.97,NW,325,4.0,6.3,0,0.00,,---,0.00,VWS V14.01,2013-03-27 10:44:00,
2013-03-27 06:49:00,0.0,0.0,29.97,North,350,3.1,5.8,0,0.00,,---,0.00,VWS V14.01,2013-03-27 10:49:00,
2013-03-27 06:54:00,0.0,0.0,29.97,NNW,343,6.3,6.3,0,0.00,,---,0.00,VWS V14.01,2013-03-27 10:54:00,
2013-03-27 06:59:00,0.0,0.0,29.97,NW,322,3.1,4.9,0,0.00,,---,0.00,VWS V14.01,2013-03-27 10:59:00,
2013-03-27 07:04:00,0.0,0.0,29.97,NW,326,7.2,7.2,0,0.00,,---,0.00,VWS V14.01,2013-03-27 11:04:00,
2013-03-27 07:09:00,0.0,0.0,29.97,NW,317,5.4,8.1,0,0.00,,---,0.00,VWS V14.01,2013-03-27 11:09:00,
2013-03-27 07:14:00,0.0,0.0,29.97,NW,322,5.4,8.1,0,0.00,,---,0.00,VWS V14.01,2013-03-27 11:14:00,
2013-03-27 07:19:00,0.0,0.0,29.97,NNW,332,4.0,5.8,0,0.00,,---,0.00,VWS V14.01,2013-03-27 11:19:00,
2013-03-27 07:24:00,0.0,0.0,29.97,NW,313,5.4,7.6,0,0.00,,---,0.00,VWS V14.01,2013-03-27 11:24:00,
2013-03-27 07:29:00,0.0,0.0,30.00,NW,308,3.6,8.3,0,0.00,,---,0.00,VWS V14.01,2013-03-27 11:29:00,
2013-03-27 07:34:00,0.0,0.0,30.00,WNW,303,5.8,8.3,0,0.00,,---,0.00,VWS V14.01,2013-03-27 11:34:00,
2013-03-27 07:39:00,0.0,0.0,30.00,NNW,331,6.3,8.1,0,0.00,,---,0.00,VWS V14.01,2013-03-27 11:39:00,
2013-03-27 07:44:00,0.0,0.0,30.00,NW,313,8.3,8.3,0,0.00,,---,0.00,VWS V14.01,2013-03-27 11:44:00,
2013-03-27 07:49:00,0.0,0.0,30.00,NW,317,5.4,9.2,0,0.00,,---,0.00,VWS V14.01,2013-03-27 11:49:00,
2013-03-27 07:55:00,0.0,0.0,30.00,NW,306,5.8,11.0,0,0.00,,---,0.00,VWS V14.01,2013-03-27 11:55:00,
2013-03-27 08:00:00,0.0,0.0,30.00,NW,305,10.5,10.5,0,0.00,,---,0.00,VWS V14.01,2013-03-27 12:00:00,
2013-03-27 08:05:00,0.0,0.0,30.00,WNW,293,7.6,8.7,0,0.00,,---,0.00,VWS V14.01,2013-03-27 12:05:00,
2013-03-27 08:10:00,0.0,0.0,30.00,NW,313,11.0,12.8,0,0.00,,---,0.00,VWS V14.01,2013-03-27 12:10:00,
2013-03-27 08:15:00,0.0,0.0,30.00,NW,309,5.8,8.3,0,0.00,,---,0.00,VWS V14.01,2013-03-27 12:15:00,
2013-03-27 08:20:00,0.0,0.0,30.00,NW,322,8.3,9.6,0,0.00,,---,0.00,VWS V14.01,2013-03-27 12:20:00,
2013-03-27 08:25:00,0.0,0.0,30.00,NW,319,10.5,10.5,0,0.00,,---,0.00,VWS V14.01,2013-03-27 12:25:00,
2013-03-27 08:30:00,0.0,0.0,30.00,NNW,330,10.1,10.5,0,0.00,,---,0.00,VWS V14.01,2013-03-27 12:30:00,
2013-03-27 08:35:00,0.0,0.0,30.00,NW,314,11.0,15.4,0,0.00,,---,0.00,VWS V14.01,2013-03-27 12:35:00,
2013-03-27 08:40:00,0.0,0.0,30.00,NW,313,13.2,13.2,0,0.00,,---,0.00,VWS V14.01,2013-03-27 12:40:00,
2013-03-27 08:45:00,0.0,0.0,30.00,NNW,343,8.3,10.5,0,0.00,,---,0.00,VWS V14.01,2013-03-27 12:45:00,
2013-03-27 08:50:00,0.0,0.0,30.00,NNW,341,8.3,14.5,0,0.00,,---,0.00,VWS V14.01,2013-03-27 12:50:00,
2013-03-27 08:55:00,0.0,0.0,30.00,NW,322,8.7,12.8,0,0.00,,---,0.00,VWS V14.01,2013-03-27 12:55:00,
2013-03-27 09:00:00,0.0,0.0,30.00,NNW,342,7.6,11.0,0,0.00,,---,0.00,VWS V14.01,2013-03-27 13:00:00,
2013-03-27 09:05:00,0.0,0.0,30.00,NNW,330,8.7,8.7,0,0.00,,---,0.00,VWS V14.01,2013-03-27 13:05:00,
2013-03-27 09:10:00,0.0,0.0,30.00,NNW,341,8.3,8.7,0,0.00,,---,0.00,VWS V14.01,2013-03-27 13:10:00,
2013-03-27 09:15:00,0.0,0.0,30.00,North,6,5.4,5.4,0,0.00,,---,0.00,VWS V14.01,2013-03-27 13:15:00,
2013-03-27 09:20:00,0.0,0.0,30.00,NW,319,10.1,10.1,0,0.00,,---,0.00,VWS V14.01,2013-03-27 13:20:00,
2013-03-27 09:25:00,0.0,0.0,30.00,NW,307,10.1,10.1,0,0.00,,---,0.00,VWS V14.01,2013-03-27 13:25:00,
2013-03-27 09:30:00,0.0,0.0,30.00,NNW,327,12.8,12.8,0,0.00,,---,0.00,VWS V14.01,2013-03-27 13:30:00,
2013-03-27 09:35:00,0.0,0.0,30.00,NW,320,12.8,15.0,0,0.00,,---,0.00,VWS V14.01,2013-03-27 13:35:00,
2013-03-27 09:40:00,0.0,0.0,30.00,NW,321,8.1,8.1,0,0.00,,---,0.00,VWS V14.01,2013-03-27 13:40:00,
2013-03-27 09:45:00,0.0,0.0,30.00,WNW,303,9.2,10.5,0,0.00,,---,0.00,VWS V14.01,2013-03-27 13:45:00,
2013-03-27 09:50:00,0.0,0.0,30.00,NNW,327,9.6,9.6,0,0.00,,---,0.00,VWS V14.01,2013-03-27 13:50:00,
2013-03-27 09:55:00,0.0,0.0,30.00,WNW,301,7.6,10.1,0,0.00,,---,0.00,VWS V14.01,2013-03-27 13:55:00,
2013-03-27 10:00:00,0.0,0.0,30.00,NW,311,10.5,10.5,0,0.00,,---,0.00,VWS V14.01,2013-03-27 14:00:00,
2013-03-27 10:05:00,0.0,0.0,30.00,NNE,26,8.3,14.1,0,0.00,,---,0.00,VWS V14.01,2013-03-27 14:05:00,
2013-03-27 10:10:00,0.0,0.0,30.00,NNW,332,8.7,9.2,0,0.00,,---,0.00,VWS V14.01,2013-03-27 14:10:00,
2013-03-27 10:15:00,0.0,0.0,30.00,NNW,340,12.3,12.3,0,0.00,,---,0.00,VWS V14.01,2013-03-27 14:15:00,
2013-03-27 10:20:00,0.0,0.0,30.00,NW,312,5.8,8.3,0,0.00,,---,0.00,VWS V14.01,2013-03-27 14:20:00,
2013-03-27 10:25:00,0.0,0.0,30.00,NNW,333,6.7,8.3,0,0.00,,---,0.00,VWS V14.01,2013-03-27 14:25:00,
2013-03-27 10:30:00,0.0,0.0,30.00,NW,315,11.0,11.0,0,0.00,,---,0.00,VWS V14.01,2013-03-27 14:30:00,
2013-03-27 10:35:00,0.0,0.0,30.00,NW,307,10.1,10.1,0,0.00,,---,0.00,VWS V14.01,2013-03-27 14:35:00,
2013-03-27 10:40:00,0.0,0.0,30.00,NW,313,12.3,12.3,0,0.00,,---,0.00,VWS V14.01,2013-03-27 14:40:00,
2013-03-27 10:45:00,0.0,0.0,30.00,NNW,328,10.1,13.2,0,0.00,,---,0.00,VWS V14.01,2013-03-27 14:45:00,
2013-03-27 10:50:00,0.0,0.0,30.00,NNW,343,11.4,11.4,0,0.00,,---,0.00,VWS V14.01,2013-03-27 14:50:00,
2013-03-27 10:55:00,0.0,0.0,30.00,NW,311,5.4,5.4,0,0.00,,---,0.00,VWS V14.01,2013-03-27 14:55:00,
2013-03-27 11:00:00,0.0,0.0,30.00,NNE,19,11.0,13.6,0,0.00,,---,0.00,VWS V14.01,2013-03-27 15:00:00,
2013-03-27 11:05:00,0.0,0.0,30.00,NW,313,14.1,14.1,0,0.00,,---,0.00,VWS V14.01,2013-03-27 15:05:00,
2013-03-27 11:10:00,0.0,0.0,30.00,NW,313,13.2,13.2,0,0.00,,---,0.00,VWS V14.01,2013-03-27 15:10:00,
2013-03-27 11:15:00,0.0,0.0,30.00,NW,321,11.4,11.4,0,0.00,,---,0.00,VWS V14.01,2013-03-27 15:15:00,
2013-03-27 11:20:00,0.0,0.0,30.00,NNW,340,11.9,11.9,0,0.00,,---,0.00,VWS V14.01,2013-03-27 15:20:00,
2013-03-27 11:25:00,0.0,0.0,30.00,NW,307,10.5,13.2,0,0.00,,---,0.00,VWS V14.01,2013-03-27 15:25:00,
2013-03-27 11:30:00,0.0,0.0,30.00,West,272,8.1,8.3,0,0.00,,---,0.00,VWS V14.01,2013-03-27 15:30:00,
2013-03-27 11:35:00,0.0,0.0,30.00,North,353,12.8,15.9,0,0.00,,---,0.00,VWS V14.01,2013-03-27 15:35:00,
2013-03-27 11:40:00,0.0,0.0,30.00,WNW,294,10.5,12.3,0,0.00,,---,0.00,VWS V14.01,2013-03-27 15:40:00,
2013-03-27 11:45:00,0.0,0.0,30.00,NW,308,14.5,14.5,0,0.00,,---,0.00,VWS V14.01,2013-03-27 15:45:00,
2013-03-27 11:50:00,0.0,0.0,30.00,West,278,5.4,13.2,0,0.00,,---,0.00,VWS V14.01,2013-03-27 15:50:00,
2013-03-27 11:55:00,0.0,0.0,30.00,NW,307,10.1,18.3,0,0.00,,---,0.00,VWS V14.01,2013-03-27 15:55:00,
2013-03-27 12:00:00,0.0,0.0,30.00,West,261,8.1,10.5,0,0.00,,---,0.00,VWS V14.01,2013-03-27 16:00:00,
2013-03-27 12:05:00,0.0,0.0,30.00,NW,317,10.5,15.4,0,0.00,,---,0.00,VWS V14.01,2013-03-27 16:05:00,
2013-03-27 12:10:00,0.0,0.0,30.00,WNW,296,11.0,11.0,0,0.00,,---,0.00,VWS V14.01,2013-03-27 16:10:00,
2013-03-27 12:15:00,0.0,0.0,30.00,WNW,300,10.5,15.0,0,0.00,,---,0.00,VWS V14.01,2013-03-27 16:15:00,
2013-03-27 12:20:00,0.0,0.0,30.00,West,272,11.0,11.0,0,0.00,,---,0.00,VWS V14.01,2013-03-27 16:20:00,
2013-03-27 12:25:00,0.0,0.0,30.00,WNW,298,10.1,13.6,0,0.00,,---,0.00,VWS V14.01,2013-03-27 16:25:00,
2013-03-27 12:30:00,0.0,0.0,30.00,WNW,297,8.7,13.2,0,0.00,,---,0.00,VWS V14.01,2013-03-27 16:30:00,
2013-03-27 12:35:00,0.0,0.0,30.00,WNW,297,13.2,13.2,0,0.00,,---,0.00,VWS V14.01,2013-03-27 16:35:00,
2013-03-27 12:40:00,0.0,0.0,30.00,WNW,301,23.7,23.7,0,0.00,,---,0.00,VWS V14.01,2013-03-27 16:40:00,
2013-03-27 12:45:00,0.0,0.0,30.00,NNW,334,12.3,19.7,0,0.00,,---,0.00,VWS V14.01,2013-03-27 16:45:00,
2013-03-27 12:50:00,0.0,0.0,30.00,NW,321,14.5,17.4,0,0.00,,---,0.00,VWS V14.01,2013-03-27 16:50:00,
2013-03-27 12:55:00,0.0,0.0,30.00,WNW,299,14.1,23.7,0,0.00,,---,0.00,VWS V14.01,2013-03-27 16:55:00,
2013-03-27 13:00:00,0.0,0.0,30.00,WNW,301,16.8,16.8,0,0.00,,---,0.00,VWS V14.01,2013-03-27 17:00:00,
2013-03-27 13:05:00,0.0,0.0,30.00,West,277,22.4,22.4,0,0.00,,---,0.00,VWS V14.01,2013-03-27 17:05:00,
2013-03-27 13:10:00,0.0,0.0,30.00,NW,306,10.5,21.5,0,0.00,,---,0.00,VWS V14.01,2013-03-27 17:10:00,
2013-03-27 13:15:00,0.0,0.0,30.00,West,265,9.6,13.2,0,0.00,,---,0.00,VWS V14.01,2013-03-27 17:15:00,
2013-03-27 13:20:00,0.0,0.0,30.00,WNW,285,11.0,11.0,0,0.00,,---,0.00,VWS V14.01,2013-03-27 17:20:00,
2013-03-27 13:25:00,0.0,0.0,30.00,NW,318,15.0,22.8,0,0.00,,---,0.00,VWS V14.01,2013-03-27 17:25:00,
2013-03-27 13:30:00,0.0,0.0,29.97,NW,308,8.7,11.0,0,0.00,,---,0.00,VWS V14.01,2013-03-27 17:30:00,
2013-03-27 13:35:00,0.0,0.0,29.97,WNW,283,11.0,19.7,0,0.00,,---,0.00,VWS V14.01,2013-03-27 17:35:00,
2013-03-27 13:40:00,0.0,0.0,29.97,NNW,334,11.0,13.2,0,0.00,,---,0.00,VWS V14.01,2013-03-27 17:40:00,
2013-03-27 13:45:00,0.0,0.0,29.97,NNW,336,8.7,10.5,0,0.00,,---,0.00,VWS V14.01,2013-03-27 17:45:00,
2013-03-27 13:50:00,0.0,0.0,29.97,North,0,11.0,11.0,0,0.00,,---,0.00,VWS V14.01,2013-03-27 17:50:00,
2013-03-27 13:55:00,0.0,0.0,29.97,West,270,17.4,22.8,0,0.00,,---,0.00,VWS V14.01,2013-03-27 17:55:00,
2013-03-27 14:00:00,0.0,0.0,29.97,WNW,299,16.3,16.3,0,0.00,,---,0.00,VWS V14.01,2013-03-27 18:00:00,
2013-03-27 14:05:00,0.0,0.0,29.97,NW,325,12.8,18.8,0,0.00,,---,0.00,VWS V14.01,2013-03-27 18:05:00,
2013-03-27 14:10:00,0.0,0.0,29.97,NW,310,14.5,17.4,0,0.00,,---,0.00,VWS V14.01,2013-03-27 18:10:00,
2013-03-27 14:15:00,0.0,0.0,29.97,NW,315,17.0,19.7,0,0.00,,---,0.00,VWS V14.01,2013-03-27 18:15:00,
2013-03-27 14:20:00,0.0,0.0,29.97,NW,315,11.4,18.3,0,0.00,,---,0.00,VWS V14.01,2013-03-27 18:20:00,
2013-03-27 14:25:00,0.0,0.0,29.97,NNW,332,8.3,17.0,0,0.00,,---,0.00,VWS V14.01,2013-03-27 18:25:00,
2013-03-27 14:30:00,0.0,0.0,29.97,NW,311,18.3,18.3,0,0.00,,---,0.00,VWS V14.01,2013-03-27 18:30:00,
2013-03-27 14:35:00,0.0,0.0,29.97,NW,320,15.4,15.4,0,0.00,,---,0.00,VWS V14.01,2013-03-27 18:35:00,
2013-03-27 14:40:00,0.0,0.0,29.97,NW,320,13.2,24.2,0,0.00,,---,0.00,VWS V14.01,2013-03-27 18:40:00,
2013-03-27 14:45:00,0.0,0.0,29.97,WNW,302,22.4,22.4,0,0.00,,---,0.00,VWS V14.01,2013-03-27 18:45:00,
2013-03-27 14:50:00,0.0,0.0,29.97,West,277,18.8,18.8,0,0.00,,---,0.00,VWS V14.01,2013-03-27 18:50:00,
2013-03-27 14:55:00,0.0,0.0,29.97,WNW,286,14.5,18.3,0,0.00,,---,0.00,VWS V14.01,2013-03-27 18:55:00,
2013-03-27 15:01:00,0.0,0.0,29.97,WNW,286,17.0,17.0,0,0.00,,---,0.00,VWS V14.01,2013-03-27 19:01:00,
2013-03-27 15:06:00,0.0,0.0,29.97,NNW,345,12.3,13.2,0,0.00,,---,0.00,VWS V14.01,2013-03-27 19:06:00,
2013-03-27 15:11:00,0.0,0.0,29.97,NW,308,8.7,15.4,0,0.00,,---,0.00,VWS V14.01,2013-03-27 19:11:00,
2013-03-27 15:16:00,0.0,0.0,29.97,NW,317,12.8,17.4,0,0.00,,---,0.00,VWS V14.01,2013-03-27 19:16:00,
2013-03-27 15:21:00,0.0,0.0,29.97,NNW,335,17.0,23.3,0,0.00,,---,0.00,VWS V14.01,2013-03-27 19:21:00,
2013-03-27 15:26:00,0.0,0.0,29.97,WNW,284,11.0,23.3,0,0.00,,---,0.00,VWS V14.01,2013-03-27 19:26:00,
2013-03-27 15:31:00,0.0,0.0,29.97,NW,314,8.1,15.4,0,0.00,,---,0.00,VWS V14.01,2013-03-27 19:31:00,
2013-03-27 15:36:00,0.0,0.0,29.97,North,353,7.6,17.0,0,0.00,,---,0.00,VWS V14.01,2013-03-27 19:36:00,
2013-03-27 15:41:00,0.0,0.0,29.97,NNW,329,12.8,20.6,0,0.00,,---,0.00,VWS V14.01,2013-03-27 19:41:00,
2013-03-27 15:46:00,0.0,0.0,29.97,NW,323,15.4,17.4,0,0.00,,---,0.00,VWS V14.01,2013-03-27 19:46:00,
2013-03-27 15:51:00,0.0,0.0,29.97,WNW,303,19.2,19.2,0,0.00,,---,0.00,VWS V14.01,2013-03-27 19:51:00,
2013-03-27 15:56:00,0.0,0.0,29.97,NNW,333,18.8,25.7,0,0.00,,---,0.00,VWS V14.01,2013-03-27 19:56:00,
2013-03-27 16:01:00,0.0,0.0,29.97,WNW,296,19.7,19.7,0,0.00,,---,0.00,VWS V14.01,2013-03-27 20:01:00,
2013-03-27 16:06:00,0.0,0.0,29.97,WNW,301,14.1,17.4,0,0.00,,---,0.00,VWS V14.01,2013-03-27 20:06:00,
2013-03-27 16:11:00,0.0,0.0,29.97,WNW,296,11.9,15.4,0,0.00,,---,0.00,VWS V14.01,2013-03-27 20:11:00,
2013-03-27 16:16:00,0.0,0.0,29.97,WNW,288,13.2,14.5,0,0.00,,---,0.00,VWS V14.01,2013-03-27 20:16:00,
2013-03-27 16:21:00,0.0,0.0,29.97,WNW,292,13.2,16.3,0,0.00,,---,0.00,VWS V14.01,2013-03-27 20:21:00,
2013-03-27 16:27:00,0.0,0.0,29.97,NW,307,15.4,15.4,0,0.00,,---,0.00,VWS V14.01,2013-03-27 20:27:00,
2013-03-27 16:32:00,0.0,0.0,29.97,NNW,338,17.4,17.4,0,0.00,,---,0.00,VWS V14.01,2013-03-27 20:32:00,
2013-03-27 16:38:00,0.0,0.0,29.97,NNW,333,12.3,13.2,0,0.00,,---,0.00,VWS V14.01,2013-03-27 20:38:00,
2013-03-27 16:43:00,0.0,0.0,29.97,NW,307,12.8,14.5,0,0.00,,---,0.00,VWS V14.01,2013-03-27 20:43:00,
2013-03-27 16:48:00,0.0,0.0,29.97,NNW,334,11.0,13.2,0,0.00,,---,0.00,VWS V14.01,2013-03-27 20:48:00,
2013-03-27 16:53:00,0.0,0.0,29.97,West,276,10.1,17.0,0,0.00,,---,0.00,VWS V14.01,2013-03-27 20:53:00,
2013-03-27 16:59:00,0.0,0.0,29.97,WNW,293,14.5,15.4,0,0.00,,---,0.00,VWS V14.01,2013-03-27 20:59:00,
2013-03-27 17:04:00,0.0,0.0,29.97,West,281,14.1,15.4,0,0.00,,---,0.00,VWS V14.01,2013-03-27 21:04:00,
2013-03-27 17:09:00,0.0,0.0,29.97,NNW,331,17.4,17.4,0,0.00,,---,0.00,VWS V14.01,2013-03-27 21:09:00,
2013-03-27 17:14:00,0.0,0.0,29.97,NW,319,13.2,17.4,0,0.00,,---,0.00,VWS V14.01,2013-03-27 21:14:00,
2013-03-27 17:20:00,0.0,0.0,29.97,NNW,331,13.2,18.8,0,0.00,,---,0.00,VWS V14.01,2013-03-27 21:20:00,
2013-03-27 17:26:00,0.0,0.0,29.97,NW,312,12.8,18.3,0,0.00,,---,0.00,VWS V14.01,2013-03-27 21:26:00,
2013-03-27 17:31:00,0.0,0.0,29.97,NW,321,17.9,19.7,0,0.00,,---,0.00,VWS V14.01,2013-03-27 21:31:00,
2013-03-27 17:36:00,0.0,0.0,29.97,NW,308,15.0,15.0,0,0.00,,---,0.00,VWS V14.01,2013-03-27 21:36:00,
2013-03-27 17:42:00,0.0,0.0,29.97,NW,310,17.9,17.9,0,0.00,,---,0.00,VWS V14.01,2013-03-27 21:42:00,
2013-03-27 17:47:00,0.0,0.0,29.97,NNW,333,16.3,16.3,0,0.00,,---,0.00,VWS V14.01,2013-03-27 21:47:00,
2013-03-27 17:52:00,0.0,0.0,29.97,NNW,328,10.1,12.8,0,0.00,,---,0.00,VWS V14.01,2013-03-27 21:52:00,
2013-03-27 17:58:00,0.0,0.0,29.97,WNW,294,8.7,16.8,0,0.00,,---,0.00,VWS V14.01,2013-03-27 21:58:00,
2013-03-27 18:03:00,0.0,0.0,29.97,NW,315,21.5,21.5,0,0.00,,---,0.00,VWS V14.01,2013-03-27 22:03:00,
2013-03-27 18:09:00,0.0,0.0,29.97,West,275,14.5,14.5,0,0.00,,---,0.00,VWS V14.01,2013-03-27 22:09:00,
2013-03-27 18:14:00,0.0,0.0,29.97,NW,325,8.1,11.0,0,0.00,,---,0.00,VWS V14.01,2013-03-27 22:14:00,
2013-03-27 18:19:00,0.0,0.0,29.97,NNW,327,10.5,13.2,0,0.00,,---,0.00,VWS V14.01,2013-03-27 22:19:00,
2013-03-27 18:25:00,0.0,0.0,29.97,NNW,340,8.1,10.1,0,0.00,,---,0.00,VWS V14.01,2013-03-27 22:25:00,
2013-03-27 18:30:00,0.0,0.0,29.97,NNW,330,11.9,11.9,0,0.00,,---,0.00,VWS V14.01,2013-03-27 22:30:00,
2013-03-27 18:35:00,0.0,0.0,29.97,WNW,300,12.8,12.8,0,0.00,,---,0.00,VWS V14.01,2013-03-27 22:35:00,
2013-03-27 18:40:00,0.0,0.0,29.97,NW,311,11.0,15.0,0,0.00,,---,0.00,VWS V14.01,2013-03-27 22:40:00,
2013-03-27 18:45:00,0.0,0.0,30.00,WNW,301,11.4,11.4,0,0.00,,---,0.00,VWS V14.01,2013-03-27 22:45:00,
2013-03-27 18:51:00,0.0,0.0,30.00,NW,318,13.2,13.2,0,0.00,,---,0.00,VWS V14.01,2013-03-27 22:51:00,
2013-03-27 18:56:00,0.0,0.0,30.00,NW,326,15.0,17.0,0,0.00,,---,0.00,VWS V14.01,2013-03-27 22:56:00,
2013-03-27 19:02:00,0.0,0.0,30.00,NNW,340,8.7,8.7,0,0.00,,---,0.00,VWS V14.01,2013-03-27 23:02:00,
2013-03-27 19:07:00,0.0,0.0,30.00,NW,317,6.3,8.7,0,0.00,,---,0.00,VWS V14.01,2013-03-27 23:07:00,
2013-03-27 19:12:00,0.0,0.0,30.00,NW,322,8.1,8.3,0,0.00,,---,0.00,VWS V14.01,2013-03-27 23:12:00,
2013-03-27 19:17:00,0.0,0.0,30.00,NW,310,10.5,10.5,0,0.00,,---,0.00,VWS V14.01,2013-03-27 23:17:00,
2013-03-27 19:22:00,0.0,0.0,30.00,North,357,8.7,8.7,0,0.00,,---,0.00,VWS V14.01,2013-03-27 23:22:00,
2013-03-27 19:27:00,0.0,0.0,30.00,NW,317,8.3,8.7,0,0.00,,---,0.00,VWS V14.01,2013-03-27 23:27:00,
2013-03-27 19:32:00,0.0,0.0,29.97,WNW,292,4.5,8.1,0,0.00,,---,0.00,VWS V14.01,2013-03-27 23:32:00,
2013-03-27 19:37:00,0.0,0.0,29.97,WNW,302,7.6,7.6,0,0.00,,---,0.00,VWS V14.01,2013-03-27 23:37:00,
2013-03-27 19:42:00,0.0,0.0,29.97,NW,304,8.1,8.3,0,0.00,,---,0.00,VWS V14.01,2013-03-27 23:42:00,
2013-03-27 19:47:00,0.0,0.0,30.00,NW,316,10.1,10.1,0,0.00,,---,0.00,VWS V14.01,2013-03-27 23:47:00,
2013-03-27 19:52:00,0.0,0.0,30.00,NW,306,8.3,10.5,0,0.00,,---,0.00,VWS V14.01,2013-03-27 23:52:00,
2013-03-27 19:57:00,0.0,0.0,30.00,NNW,330,8.7,10.5,0,0.00,,---,0.00,VWS V14.01,2013-03-27 23:57:00,
2013-03-27 20:02:00,0.0,0.0,30.00,NW,306,8.3,8.3,0,0.00,,---,0.00,VWS V14.01,2013-03-28 00:02:00,
2013-03-27 20:07:00,0.0,0.0,30.00,NW,309,10.5,10.5,0,0.00,,---,0.00,VWS V14.01,2013-03-28 00:07:00,
2013-03-27 20:12:00,0.0,0.0,30.00,NW,320,7.6,8.3,0,0.00,,---,0.00,VWS V14.01,2013-03-28 00:12:00,
2013-03-27 20:17:00,0.0,0.0,30.03,NW,315,11.0,11.0,0,0.00,,---,0.00,VWS V14.01,2013-03-28 00:17:00,
2013-03-27 20:22:00,0.0,0.0,30.03,North,353,8.3,9.2,0,0.00,,---,0.00,VWS V14.01,2013-03-28 00:22:00,
2013-03-27 20:27:00,0.0,0.0,30.03,NW,305,6.3,9.2,0,0.00,,---,0.00,VWS V14.01,2013-03-28 00:27:00,
2013-03-27 20:32:00,0.0,0.0,30.03,NNW,330,10.5,11.9,0,0.00,,---,0.00,VWS V14.01,2013-03-28 00:32:00,
2013-03-27 20:37:00,0.0,0.0,30.03,NW,305,11.0,11.0,0,0.00,,---,0.00,VWS V14.01,2013-03-28 00:37:00,
2013-03-27 20:42:00,0.0,0.0,30.03,NW,313,6.3,10.5,0,0.00,,---,0.00,VWS V14.01,2013-03-28 00:42:00,
2013-03-27 20:47:00,0.0,0.0,30.03,ENE,67,8.7,14.5,0,0.00,,---,0.00,VWS V14.01,2013-03-28 00:47:00,
2013-03-27 20:52:00,0.0,0.0,30.03,NW,312,8.1,14.5,0,0.00,,---,0.00,VWS V14.01,2013-03-28 00:52:00,
2013-03-27 20:57:00,0.0,0.0,30.03,NW,320,12.8,12.8,0,0.00,,---,0.00,VWS V14.01,2013-03-28 00:57:00,
2013-03-27 21:02:00,0.0,0.0,30.03,NNW,338,11.0,12.3,0,0.00,,---,0.00,VWS V14.01,2013-03-28 01:02:00,
2013-03-27 21:07:00,0.0,0.0,30.03,NW,314,12.8,15.0,0,0.00,,---,0.00,VWS V14.01,2013-03-28 01:07:00,
2013-03-27 21:12:00,0.0,0.0,30.03,WNW,292,7.6,10.5,0,0.00,,---,0.00,VWS V14.01,2013-03-28 01:12:00,
2013-03-27 21:17:00,0.0,0.0,30.03,NW,320,10.5,15.4,0,0.00,,---,0.00,VWS V14.01,2013-03-28 01:17:00,
2013-03-27 21:22:00,0.0,0.0,30.03,NNW,332,12.8,15.0,0,0.00,,---,0.00,VWS V14.01,2013-03-28 01:22:00,
2013-03-27 21:27:00,0.0,0.0,30.03,NW,315,13.2,15.4,0,0.00,,---,0.00,VWS V14.01,2013-03-28 01:27:00,
2013-03-27 21:32:00,0.0,0.0,30.03,NW,319,12.3,16.8,0,0.00,,---,0.00,VWS V14.01,2013-03-28 01:32:00,
2013-03-27 21:37:00,0.0,0.0,30.03,NW,317,8.7,8.7,0,0.00,,---,0.00,VWS V14.01,2013-03-28 01:37:00,
2013-03-27 21:42:00,0.0,0.0,30.03,NW,311,11.0,12.3,0,0.00,,---,0.00,VWS V14.01,2013-03-28 01:42:00,
2013-03-27 21:47:00,0.0,0.0,30.06,NNW,344,10.5,14.1,0,0.00,,---,0.00,VWS V14.01,2013-03-28 01:47:00,
2013-03-27 21:52:00,0.0,0.0,30.06,WNW,291,6.3,13.2,0,0.00,,---,0.00,VWS V14.01,2013-03-28 01:52:00,
2013-03-27 21:57:00,0.0,0.0,30.06,NW,312,9.6,10.1,0,0.00,,---,0.00,VWS V14.01,2013-03-28 01:57:00,
2013-03-27 22:02:00,0.0,0.0,30.06,NNW,343,10.5,13.6,0,0.00,,---,0.00,VWS V14.01,2013-03-28 02:02:00,
2013-03-27 22:07:00,0.0,0.0,30.06,NW,311,8.7,10.5,0,0.00,,---,0.00,VWS V14.01,2013-03-28 02:07:00,
2013-03-27 22:12:00,0.0,0.0,30.06,NW,320,8.3,14.1,0,0.00,,---,0.00,VWS V14.01,2013-03-28 02:12:00,
2013-03-27 22:17:00,0.0,0.0,30.06,WNW,296,11.4,11.4,0,0.00,,---,0.00,VWS V14.01,2013-03-28 02:17:00,
2013-03-27 22:23:00,0.0,0.0,30.06,NW,321,5.4,11.0,0,0.00,,---,0.00,VWS V14.01,2013-03-28 02:23:00,
2013-03-27 22:28:00,0.0,0.0,30.06,NW,307,8.1,12.3,0,0.00,,---,0.00,VWS V14.01,2013-03-28 02:28:00,
2013-03-27 22:33:00,0.0,0.0,30.06,NW,325,8.7,13.2,0,0.00,,---,0.00,VWS V14.01,2013-03-28 02:33:00,
2013-03-27 22:38:00,0.0,0.0,30.06,NW,324,13.2,13.2,0,0.00,,---,0.00,VWS V14.01,2013-03-28 02:38:00,
2013-03-27 22:43:00,0.0,0.0,30.06,NNE,12,8.3,12.8,0,0.00,,---,0.00,VWS V14.01,2013-03-28 02:43:00,
2013-03-27 22:48:00,0.0,0.0,30.06,NW,322,9.2,12.8,0,0.00,,---,0.00,VWS V14.01,2013-03-28 02:48:00,
2013-03-27 22:53:00,0.0,0.0,30.06,NNW,339,12.8,12.8,0,0.00,,---,0.00,VWS V14.01,2013-03-28 02:53:00,
2013-03-27 22:58:00,0.0,0.0,30.06,NNW,333,12.3,13.2,0,0.00,,---,0.00,VWS V14.01,2013-03-28 02:58:00,
2013-03-27 23:03:00,0.0,0.0,30.06,North,353,5.8,10.5,0,0.00,,---,0.00,VWS V14.01,2013-03-28 03:03:00,
2013-03-27 23:08:00,0.0,0.0,30.06,WNW,288,8.7,12.3,0,0.00,,---,0.00,VWS V14.01,2013-03-28 03:08:00,
2013-03-27 23:13:00,0.0,0.0,30.06,NW,314,6.3,7.6,0,0.00,,---,0.00,VWS V14.01,2013-03-28 03:13:00,
2013-03-27 23:18:00,0.0,0.0,30.06,WNW,292,8.7,10.1,0,0.00,,---,0.00,VWS V14.01,2013-03-28 03:18:00,
2013-03-27 23:23:00,0.0,0.0,30.06,NNW,336,7.6,10.1,0,0.00,,---,0.00,VWS V14.01,2013-03-28 03:23:00,
2013-03-27 23:28:00,0.0,0.0,30.06,NNW,335,7.6,11.0,0,0.00,,---,0.00,VWS V14.01,2013-03-28 03:28:00,
2013-03-27 23:33:00,0.0,0.0,30.06,NW,314,8.3,11.9,0,0.00,,---,0.00,VWS V14.01,2013-03-28 03:33:00,
2013-03-27 23:38:00,0.0,0.0,30.06,NNW,340,5.8,8.3,0,0.00,,---,0.00,VWS V14.01,2013-03-28 03:38:00,
2013-03-27 23:43:00,0.0,0.0,30.06,NW,309,7.6,10.5,0,0.00,,---,0.00,VWS V14.01,2013-03-28 03:43:00,
2013-03-27 23:48:00,0.0,0.0,30.06,NW,325,11.0,11.0,0,0.00,,---,0.00,VWS V14.01,2013-03-28 03:48:00,
2013-03-27 23:53:00,0.0,0.0,30.06,NW,317,9.2,9.2,0,0.00,,---,0.00,VWS V14.01,2013-03-28 03:53:00,
2013-03-27 23:58:00,0.0,0.0,30.06,NW,315,10.1,10.1,0,0.00,,---,0.00,VWS V14.01,2013-03-28 03:58:00,